Total_Precipitation_Accumulation
0.03 0.06 0.11 0.11 0.13 0.17 0.20 0.25 0.30 0.40 0.33 0.32 0.48 0.76 0.87 0.87 0.89 1.03 1.22 1.23 1.25 1.38 1.77 2.25 2.76 3.25 3.95 4.92 5.94 6.39 6.26 5.68 5.16 4.75 4.42 4.21 3.87 3.57 3.45 3.14 2.80 2.78 2.76 2.80
0.06 0.08 0.07 0.08 0.09 0.13 0.19 0.27 0.30 0.37 0.30 0.35 0.52 0.84 1.02 1.12 1.16 1.08 1.15 1.27 1.21 1.37 1.83 2.35 2.94 3.32 3.67 4.25 5.08 5.48 5.20 4.62 3.97 3.71 3.67 3.67 3.60 3.20 2.97 2.91 2.91 2.60 2.60 2.68
0.06 0.08 0.06 0.06 0.07 0.14 0.19 0.24 0.29 0.35 0.32 0.42 0.58 1.09 1.39 1.36 1.10 0.90 0.82 0.97 1.02 1.13 1.63 2.36 2.92 3.19 3.46 3.74 3.82 3.96 3.90 3.49 3.18 3.11 3.12 3.15 3.33 3.09 2.80 2.71 2.67 2.45 2.35 2.34
0.06 0.05 0.05 0.06 0.08 0.12 0.19 0.16 0.17 0.24 0.37 0.60 0.70 1.51 1.80 1.49 1.23 1.00 0.84 0.84 0.92 1.08 1.48 2.23 2.54 2.67 2.73 2.83 2.71 2.81 2.92 2.85 2.82 2.73 2.73 2.61 2.48 2.49 2.39 2.40 2.36 2.36 2.24 2.18
0.07 0.05 0.05 0.06 0.07 0.12 0.17 0.14 0.15 0.24 0.40 0.62 0.87 1.42 1.90 1.64 1.43 1.09 0.82 0.79 0.95 0.99 1.20 1.52 1.64 1.79 1.87 1.93 1.98 2.23 2.60 2.76 2.67 2.57 2.67 2.67 2.35 2.22 2.17 2.22 2.36 2.34 2.23 2.13
0.08 0.07 0.05 0.06 0.08 0.10 0.14 0.18 0.24 0.40 0.63 1.12 1.14 1.31 1.79 1.62 1.30 0.94 0.76 0.73 0.69 0.73 0.89 1.08 1.17 1.27 1.34 1.39 1.51 1.76 2.21 2.46 2.44 2.42 2.43 2.36 2.29 2.26 2.20 2.15 2.20 2.17 2.14 2.22
0.11 0.10 0.11 0.10 0.10 0.13 0.13 0.20 0.50 0.97 1.46 1.62 1.06 1.21 1.61 1.26 0.93 0.68 0.55 0.57 0.61 0.74 0.80 0.93 1.13 1.19 1.14 1.11 1.23 1.41 1.72 1.87 1.87 1.97 2.15 2.22 2.26 2.23 2.09 2.03 2.01 1.97 1.81 1.92
0.16 0.19 0.15 0.11 0.09 0.13 0.16 0.19 0.40 0.73 0.90 1.06 0.99 1.48 1.64 0.97 0.72 0.60 0.54 0.55 0.65 0.71 0.69 0.76 0.90 0.92 0.92 0.99 1.07 1.21 1.37 1.45 1.54 1.65 1.86 2.04 2.07 2.04 2.00 2.14 2.03 1.87 1.66 1.61
0.09 0.10 0.09 0.07 0.08 0.11 0.15 0.16 0.19 0.28 0.39 0.76 1.18 1.45 1.33 0.90 0.66 0.57 0.53 0.49 0.60 0.61 0.55 0.59 0.70 0.75 0.79 0.96 1.06 1.10 1.20 1.30 1.41 1.50 1.77 1.94 1.95 1.90 1.93 2.02 1.93 1.75 1.76 1.65
0.06 0.06 0.08 0.08 0.09 0.11 0.13 0.14 0.15 0.23 0.42 0.77 1.21 1.63 1.55 1.17 0.83 0.70 0.55 0.47 0.54 0.54 0.51 0.58 0.62 0.71 0.71 0.73 0.89 1.00 1.07 1.25 1.42 1.50 1.56 1.60 1.76 1.73 1.71 1.66 1.63 1.71 1.75 1.71
0.05 0.05 0.07 0.09 0.11 0.14 0.14 0.12 0.13 0.17 0.25 0.55 1.07 1.36 1.02 0.86 0.68 0.66 0.63 0.57 0.55 0.59 0.60 0.60 0.67 0.69 0.65 0.64 0.79 0.92 1.01 1.14 1.26 1.29 1.34 1.45 1.55 1.54 1.50 1.50 1.47 1.57 1.61 1.65
0.05 0.07 0.08 0.11 0.13 0.12 0.11 0.10 0.12 0.17 0.22 0.30 0.65 0.87 0.57 0.58 0.57 0.63 0.66 0.67 0.71 0.79 0.78 0.76 0.79 0.76 0.74 0.75 0.79 0.88 0.88 0.94 1.02 1.11 1.19 1.27 1.39 1.42 1.42 1.45 1.58 1.66 1.65 1.59
0.05 0.07 0.09 0.22 0.27 0.19 0.12 0.10 0.13 0.14 0.16 0.23 0.54 0.82 0.56 0.56 0.64 0.68 0.66 0.75 0.77 0.73 0.80 0.96 0.98 0.84 0.79 0.80 0.83 0.84 0.82 0.86 0.92 1.00 1.05 1.13 1.28 1.45 1.54 1.59 1.62 1.71 1.74 1.69
0.06 0.07 0.08 0.21 0.29 0.27 0.21 0.16 0.16 0.17 0.19 0.23 0.36 0.60 0.57 0.53 0.62 0.77 0.72 0.71 0.77 0.76 0.80 0.96 1.08 0.86 0.75 0.74 0.77 0.79 0.78 0.77 0.80 0.96 1.10 1.18 1.38 1.59 1.67 1.69 1.72 1.73 1.75 1.75
0.08 0.08 0.07 0.08 0.14 0.20 0.22 0.19 0.18 0.14 0.15 0.22 0.32 0.48 0.62 0.72 0.74 0.74 0.77 0.78 0.72 0.76 0.79 0.84 0.94 0.89 0.81 0.77 0.79 0.83 0.88 0.89 0.89 1.09 1.25 1.43 1.60 1.65 1.70 1.77 1.79 1.85 1.89 1.80
0.11 0.10 0.08 0.09 0.15 0.16 0.18 0.21 0.16 0.11 0.11 0.19 0.31 0.51 0.65 0.64 0.73 0.75 0.70 0.69 0.73 0.80 0.84 0.96 1.02 0.99 0.97 0.94 0.98 1.06 1.11 1.18 1.28 1.39 1.52 1.61 1.69 1.74 1.69 1.69 1.71 1.87 1.95 2.02
0.18 0.18 0.19 0.18 0.20 0.23 0.26 0.24 0.18 0.15 0.18 0.25 0.34 0.52 0.64 0.71 0.85 0.95 0.95 0.85 0.84 0.96 0.99 1.10 1.17 1.15 1.18 1.19 1.28 1.41 1.38 1.45 1.58 1.69 1.84 1.85 1.82 1.86 1.84 1.88 1.93 1.95 2.08 2.22
0.27 0.29 0.26 0.25 0.31 0.44 0.36 0.27 0.24 0.24 0.25 0.29 0.40 0.55 0.68 0.82 0.87 1.03 1.12 1.07 0.98 0.96 1.02 1.15 1.24 1.24 1.22 1.28 1.40 1.63 1.73 1.72 1.83 1.92 2.01 2.09 2.11 2.17 2.25 2.35 2.37 2.42 2.49 2.55
0.30 0.40 0.41 0.40 0.49 0.51 0.44 0.37 0.33 0.36 0.48 0.47 0.58 0.81 0.95 0.97 1.16 1.37 1.29 1.15 1.14 1.18 1.15 1.31 1.32 1.29 1.31 1.49 1.56 1.63 1.75 1.78 1.93 2.11 2.26 2.33 2.39 2.43 2.47 2.51 2.64 2.80 2.96 3.01
0.35 0.38 0.49 0.48 0.59 0.69 0.67 0.51 0.46 0.60 1.13 0.94 0.91 0.98 0.98 1.08 1.54 1.60 1.24 1.12 1.16 1.18 1.30 1.45 1.50 1.46 1.54 1.80 1.86 1.95 2.02 2.08 2.15 2.25 2.41 2.60 2.72 2.77 2.76 2.83 3.00 3.19 3.37 3.40
0.62 0.63 0.59 0.57 0.67 0.77 0.70 0.57 0.65 1.23 1.69 1.36 1.23 1.19 1.21 1.43 1.50 1.48 1.32 1.17 1.13 1.17 1.27 1.43 1.50 1.51 1.58 1.80 2.01 2.29 2.41 2.45 2.44 2.49 2.62 2.76 2.87 3.00 3.07 3.17 3.27 3.46 3.60 3.58
0.91 0.95 0.93 0.90 1.06 1.15 0.75 0.75 1.15 1.50 1.33 1.44 1.58 1.61 1.55 1.55 1.37 1.29 1.28 1.32 1.28 1.26 1.32 1.40 1.53 1.61 1.70 1.83 2.09 2.36 2.55 2.68 2.74 2.74 2.88 2.93 2.94 2.85 2.85 3.11 3.31 3.55 3.77 3.74
1.15 1.18 1.22 1.28 1.42 1.26 0.98 1.07 1.15 1.14 1.29 1.40 1.49 1.64 1.69 1.65 1.65 1.52 1.48 1.49 1.43 1.36 1.30 1.34 1.42 1.55 1.64 1.72 1.94 2.34 2.50 2.59 2.68 2.78 2.82 2.92 2.95 2.97 3.02 3.23 3.41 3.62 3.73 3.69
1.23 1.18 1.32 1.47 1.53 1.40 1.31 1.33 1.36 1.37 1.42 1.44 1.46 1.56 1.65 1.67 1.77 1.68 1.54 1.40 1.30 1.25 1.24 1.31 1.41 1.55 1.64 1.56 1.69 1.91 2.13 2.28 2.37 2.43 2.46 2.45 2.56 2.72 2.96 3.26 3.36 3.41 3.46 3.50
1.37 1.31 1.47 1.84 1.94 1.90 1.77 1.76 1.74 1.63 1.67 1.74 1.67 1.63 1.67 1.58 1.57 1.56 1.39 1.28 1.27 1.31 1.25 1.30 1.47 1.48 1.52 1.58 1.58 1.63 1.68 1.89 2.07 2.11 2.14 2.23 2.34 2.52 2.73 2.96 3.11 3.07 3.10 3.31
1.67 1.61 1.67 1.98 2.02 2.21 2.18 1.96 1.86 1.73 1.77 1.79 1.77 1.68 1.62 1.55 1.53 1.46 1.37 1.33 1.30 1.29 1.29 1.30 1.35 1.33 1.33 1.46 1.54 1.55 1.66 1.83 1.90 1.86 1.89 1.93 1.99 2.16 2.33 2.48 2.60 2.62 2.40 2.46